Time,TemperatureF,DewpointF,PressureIn,WindDirection,WindDirectionDegrees,WindSpeedMPH,WindSpeedGustMPH,Humidity,HourlyPrecipIn,Conditions,Clouds,dailyrainin,SoftwareType,DateUTC
2013-07-10 00:02:00,82.0,70.0,30.03,North,0,0.0,0.0,68,0.00,,,0.00,,2013-07-10 05:02:00,
2013-07-10 00:11:00,81.0,70.0,30.04,North,0,0.0,0.0,70,0.00,,,0.00,,2013-07-10 05:11:00,
2013-07-10 00:22:00,80.0,69.0,30.05,North,0,0.0,0.0,70,0.00,,,0.00,,2013-07-10 05:22:00,
2013-07-10 00:32:00,80.0,70.0,30.05,North,0,0.0,0.0,71,0.00,,,0.00,,2013-07-10 05:32:00,
2013-07-10 00:42:00,80.0,70.0,30.05,North,0,0.0,0.0,72,0.00,,,0.00,,2013-07-10 05:42:00,
2013-07-10 00:52:00,79.0,69.0,30.05,North,0,0.0,0.0,72,0.00,,,0.00,,2013-07-10 05:52:00,
2013-07-10 01:01:00,79.0,69.0,30.05,North,0,0.0,0.0,72,0.00,,,0.00,,2013-07-10 06:01:00,
2013-07-10 01:11:00,79.0,69.0,30.05,North,0,0.0,0.0,72,0.00,,,0.00,,2013-07-10 06:11:00,
2013-07-10 01:21:00,79.0,70.0,30.06,North,0,0.0,0.0,73,0.00,,,0.00,,2013-07-10 06:21:00,
2013-07-10 01:32:00,79.0,70.0,30.06,North,0,0.0,0.0,73,0.00,,,0.00,,2013-07-10 06:32:00,
2013-07-10 01:42:00,78.0,69.0,30.05,North,0,0.0,0.0,75,0.00,,,0.00,,2013-07-10 06:42:00,
2013-07-10 01:52:00,78.0,69.0,30.06,North,0,0.0,0.0,75,0.00,,,0.00,,2013-07-10 06:52:00,
2013-07-10 02:01:00,78.0,70.0,30.06,North,0,0.0,0.0,76,0.00,,,0.00,,2013-07-10 07:01:00,
2013-07-10 02:11:00,78.0,70.0,30.06,North,0,0.0,0.0,76,0.00,,,0.00,,2013-07-10 07:11:00,
2013-07-10 02:22:00,78.0,70.0,30.06,North,0,0.0,0.0,76,0.00,,,0.00,,2013-07-10 07:22:00,
2013-07-10 02:33:00,77.0,70.0,30.05,North,0,0.0,0.0,78,0.00,,,0.00,,2013-07-10 07:33:00,
2013-07-10 02:43:00,77.0,70.0,30.05,North,0,0.0,0.0,78,0.00,,,0.00,,2013-07-10 07:43:00,
2013-07-10 02:53:00,77.0,70.0,30.05,North,0,0.0,0.0,80,0.00,,,0.00,,2013-07-10 07:53:00,
2013-07-10 03:01:00,77.0,70.0,30.05,North,0,0.0,0.0,80,0.00,,,0.00,,2013-07-10 08:01:00,
2013-07-10 03:11:00,77.0,70.0,30.05,North,0,0.0,0.0,80,0.00,,,0.00,,2013-07-10 08:11:00,
2013-07-10 03:23:00,77.0,70.0,30.05,North,0,0.0,0.0,80,0.00,,,0.00,,2013-07-10 08:23:00,
2013-07-10 03:33:00,76.0,70.0,30.05,North,0,0.0,0.0,82,0.00,,,0.00,,2013-07-10 08:33:00,
2013-07-10 03:42:00,75.0,69.0,30.05,North,0,0.0,0.0,83,0.00,,,0.00,,2013-07-10 08:42:00,
2013-07-10 03:53:00,75.0,69.0,30.05,North,0,0.0,0.0,83,0.00,,,0.00,,2013-07-10 08:53:00,
2013-07-10 04:02:00,75.0,69.0,30.06,North,0,0.0,0.0,83,0.00,,,0.00,,2013-07-10 09:02:00,
2013-07-10 04:12:00,75.0,69.0,30.06,North,0,0.0,0.0,83,0.00,,,0.00,,2013-07-10 09:12:00,
2013-07-10 04:22:00,75.0,69.0,30.06,North,0,0.0,0.0,83,0.00,,,0.00,,2013-07-10 09:22:00,
2013-07-10 04:32:00,75.0,69.0,30.06,North,0,0.0,0.0,83,0.00,,,0.00,,2013-07-10 09:32:00,
2013-07-10 04:42:00,75.0,69.0,30.06,North,0,0.0,0.0,83,0.00,,,0.00,,2013-07-10 09:42:00,
2013-07-10 05:13:00,74.0,70.0,30.06,North,0,0.0,0.0,86,0.00,,,0.00,,2013-07-10 10:13:00,
2013-07-10 05:23:00,73.0,69.0,30.06,North,0,0.0,0.0,86,0.00,,,0.00,,2013-07-10 10:23:00,
2013-07-10 05:32:00,73.0,69.0,30.05,North,0,0.0,0.0,87,0.00,,,0.00,,2013-07-10 10:32:00,
2013-07-10 05:50:00,-999.0,-99.9,30.05,North,0,0.0,0.0,-999,-99.99,,,-99.99,,2013-07-10 10:50:00,
2013-07-10 06:00:00,-999.0,-99.9,30.06,North,0,0.0,0.0,-999,-99.99,,,-99.99,,2013-07-10 11:00:00,
2013-07-10 06:11:00,72.0,68.0,30.06,North,0,0.0,0.0,87,0.00,,,0.00,,2013-07-10 11:11:00,
2013-07-10 06:22:00,72.0,68.0,30.06,North,0,0.0,0.0,87,0.00,,,0.00,,2013-07-10 11:22:00,
2013-07-10 06:33:00,72.0,68.0,30.06,North,0,0.0,0.0,87,0.00,,,0.00,,2013-07-10 11:33:00,
2013-07-10 06:43:00,72.0,68.0,30.06,North,0,0.0,0.0,87,0.00,,,0.00,,2013-07-10 11:43:00,
2013-07-10 06:52:00,72.0,68.0,30.06,North,0,0.0,0.0,87,0.00,,,0.00,,2013-07-10 11:52:00,
2013-07-10 07:01:00,72.0,68.0,30.06,North,0,0.0,0.0,87,0.00,,,0.00,,2013-07-10 12:01:00,
2013-07-10 07:11:00,72.0,68.0,30.07,North,0,0.0,0.0,87,0.00,,,0.00,,2013-07-10 12:11:00,
2013-07-10 07:22:00,72.0,68.0,30.07,North,0,0.0,0.0,87,0.00,,,0.00,,2013-07-10 12:22:00,
2013-07-10 07:33:00,73.0,69.0,30.07,North,0,0.0,0.0,88,0.00,,,0.00,,2013-07-10 12:33:00,
2013-07-10 07:43:00,73.0,69.0,30.07,North,0,0.0,0.0,88,0.00,,,0.00,,2013-07-10 12:43:00,
2013-07-10 07:52:00,73.0,69.0,30.07,North,0,0.0,0.0,88,0.00,,,0.00,,2013-07-10 12:52:00,
2013-07-10 08:01:00,73.0,69.0,30.07,North,0,0.0,0.0,88,0.00,,,0.00,,2013-07-10 13:01:00,
2013-07-10 08:11:00,73.0,69.0,30.07,North,0,0.0,0.0,88,0.00,,,0.00,,2013-07-10 13:11:00,
2013-07-10 08:21:00,73.0,69.0,30.07,North,0,0.0,0.0,88,0.00,,,0.00,,2013-07-10 13:21:00,
2013-07-10 08:32:00,73.0,69.0,30.07,North,0,0.0,0.0,88,0.00,,,0.00,,2013-07-10 13:32:00,
2013-07-10 08:52:00,77.0,70.0,30.08,North,0,0.0,0.0,80,0.00,,,0.00,,2013-07-10 13:52:00,
2013-07-10 09:01:00,77.0,70.0,30.08,North,0,0.0,0.0,80,0.00,,,0.00,,2013-07-10 14:01:00,
2013-07-10 09:11:00,77.0,70.0,30.08,North,0,0.0,0.0,80,0.00,,,0.00,,2013-07-10 14:11:00,
2013-07-10 09:22:00,77.0,70.0,30.08,North,0,0.0,0.0,80,0.00,,,0.00,,2013-07-10 14:22:00,
2013-07-10 09:33:00,82.0,72.0,30.08,North,0,0.0,0.0,71,0.00,,,0.00,,2013-07-10 14:33:00,
2013-07-10 10:11:00,85.0,72.0,30.07,North,0,0.0,0.0,65,0.00,,,0.00,,2013-07-10 15:11:00,
2013-07-10 10:22:00,85.0,72.0,30.07,North,0,0.0,0.0,65,0.00,,,0.00,,2013-07-10 15:22:00,
2013-07-10 10:42:00,87.0,71.0,30.08,North,0,0.0,0.0,59,0.00,,,0.00,,2013-07-10 15:42:00,
2013-07-10 11:11:00,89.0,72.0,30.07,North,0,0.0,0.0,57,0.00,,,0.00,,2013-07-10 16:11:00,
2013-07-10 11:22:00,89.0,72.0,30.07,North,0,0.0,0.0,57,0.00,,,0.00,,2013-07-10 16:22:00,
2013-07-10 11:33:00,89.0,72.0,30.07,North,0,0.0,0.0,57,0.00,,,0.00,,2013-07-10 16:33:00,
2013-07-10 17:01:00,101.0,67.0,29.97,North,0,0.0,0.0,33,0.00,,,0.00,,2013-07-10 22:01:00,
2013-07-10 17:11:00,102.0,67.0,29.96,North,0,0.0,0.0,32,0.00,,,0.00,,2013-07-10 22:11:00,
2013-07-10 18:11:00,98.0,66.0,29.94,North,0,0.0,0.0,36,0.00,,,0.00,,2013-07-10 23:11:00,
2013-07-10 18:22:00,97.0,66.0,29.94,North,0,0.0,0.0,37,0.00,,,0.00,,2013-07-10 23:22:00,
2013-07-10 18:32:00,97.0,66.0,29.93,North,0,0.0,0.0,37,0.00,,,0.00,,2013-07-10 23:32:00,
2013-07-10 18:43:00,97.0,66.0,29.93,North,0,0.0,0.0,37,0.00,,,0.00,,2013-07-10 23:43:00,
2013-07-10 18:52:00,97.0,66.0,29.92,North,0,0.0,0.0,36,0.00,,,0.00,,2013-07-10 23:52:00,
2013-07-10 19:01:00,97.0,66.0,29.92,North,0,0.0,0.0,36,0.00,,,0.00,,2013-07-11 00:01:00,
2013-07-10 19:11:00,97.0,66.0,29.92,North,0,0.0,0.0,36,0.00,,,0.00,,2013-07-11 00:11:00,
2013-07-10 19:22:00,96.0,66.0,29.92,North,0,0.0,0.0,38,0.00,,,0.00,,2013-07-11 00:22:00,
2013-07-10 19:32:00,96.0,66.0,29.91,North,0,0.0,0.0,38,0.00,,,0.00,,2013-07-11 00:32:00,
2013-07-10 19:43:00,96.0,66.0,29.91,North,0,0.0,0.0,38,0.00,,,0.00,,2013-07-11 00:43:00,
2013-07-10 19:52:00,96.0,66.0,29.91,North,0,0.0,0.0,38,0.00,,,0.00,,2013-07-11 00:52:00,
2013-07-10 20:01:00,95.0,66.0,29.92,North,0,0.0,0.0,39,0.00,,,0.00,,2013-07-11 01:01:00,
2013-07-10 20:11:00,95.0,66.0,29.92,North,0,0.0,0.0,39,0.00,,,0.00,,2013-07-11 01:11:00,
2013-07-10 20:22:00,94.0,66.0,29.92,North,0,0.0,0.0,40,0.00,,,0.00,,2013-07-11 01:22:00,
2013-07-10 20:32:00,94.0,66.0,29.92,North,0,0.0,0.0,40,0.00,,,0.00,,2013-07-11 01:32:00,
2013-07-10 20:43:00,91.0,65.0,29.92,North,0,0.0,0.0,42,0.00,,,0.00,,2013-07-11 01:43:00,
2013-07-10 20:52:00,91.0,65.0,29.93,North,0,0.0,0.0,43,0.00,,,0.00,,2013-07-11 01:52:00,
2013-07-10 21:02:00,91.0,65.0,29.93,North,0,0.0,0.0,43,0.00,,,0.00,,2013-07-11 02:02:00,
2013-07-10 21:11:00,91.0,65.0,29.93,North,0,0.0,0.0,43,0.00,,,0.00,,2013-07-11 02:11:00,
2013-07-10 21:22:00,91.0,65.0,29.93,North,0,0.0,0.0,43,0.00,,,0.00,,2013-07-11 02:22:00,
2013-07-10 21:32:00,91.0,65.0,29.93,North,0,0.0,0.0,43,0.00,,,0.00,,2013-07-11 02:32:00,
2013-07-10 22:01:00,86.0,69.0,29.94,North,0,0.0,0.0,57,0.00,,,0.00,,2013-07-11 03:01:00,
2013-07-10 22:11:00,86.0,69.0,29.94,North,0,0.0,0.0,57,0.00,,,0.00,,2013-07-11 03:11:00,
2013-07-10 22:21:00,86.0,69.0,29.93,North,0,0.0,0.0,57,0.00,,,0.00,,2013-07-11 03:21:00,
2013-07-10 22:33:00,85.0,69.0,29.95,North,0,0.0,0.0,58,0.00,,,0.00,,2013-07-11 03:33:00,
2013-07-10 22:42:00,85.0,69.0,29.95,North,0,0.0,0.0,58,0.00,,,0.00,,2013-07-11 03:42:00,
2013-07-10 22:52:00,85.0,69.0,29.95,North,0,0.0,0.0,58,0.00,,,0.00,,2013-07-11 03:52:00,
2013-07-10 23:01:00,84.0,69.0,29.96,North,0,0.0,0.0,60,0.00,,,0.00,,2013-07-11 04:01:00,
2013-07-10 23:12:00,84.0,69.0,29.96,North,0,0.0,0.0,60,0.00,,,0.00,,2013-07-11 04:12:00,
2013-07-10 23:22:00,83.0,68.0,29.97,North,0,0.0,0.0,61,0.00,,,0.00,,2013-07-11 04:22:00,
2013-07-10 23:32:00,83.0,69.0,29.97,North,0,0.0,0.0,62,0.00,,,0.00,,2013-07-11 04:32:00,
2013-07-10 23:42:00,83.0,69.0,29.97,North,0,0.0,0.0,62,0.00,,,0.00,,2013-07-11 04:42:00,
2013-07-10 23:53:00,83.0,69.0,29.97,North,0,0.0,0.0,62,0.00,,,0.00,,2013-07-11 04:53:00,